Date,TemperatureHighF,TemperatureAvgF,TemperatureLowF,DewpointHighF,DewpointAvgF,DewpointLowF,HumidityHigh,HumidityAvg,HumidityLow,PressureMaxIn,PressureMinIn,WindSpeedMaxMPH,WindSpeedAvgMPH,GustSpeedMaxMPH,PrecipitationSumIn
2013-2-1,67.0,49.8,37.0,42.0,35.8,30.0,90,62,31,30.23,30.15,7,3,0,0.00
2013-2-2,64.0,48.7,38.0,42.0,36.7,34.0,89,65,34,30.28,30.20,5,2,0,0.00
2013-2-3,64.0,46.8,35.0,45.0,35.1,29.0,97,67,34,30.20,30.10,4,2,0,0.00
2013-2-4,65.0,46.3,33.0,45.0,35.2,28.0,92,69,30,30.15,30.04,7,1,0,0.00
2013-2-5,57.0,41.5,33.0,42.0,36.5,31.0,98,83,56,30.07,30.00,6,2,0,0.00
2013-2-6,56.0,40.1,30.0,36.0,31.4,24.0,99,76,29,30.11,30.05,5,1,0,0.00
2013-2-7,44.0,39.8,35.0,39.0,36.5,33.0,97,88,74,30.10,29.95,3,1,0,0.02
2013-2-8,49.0,40.9,29.0,34.0,24.0,19.0,85,53,33,29.89,29.85,7,3,0,0.00
2013-2-9,50.0,36.9,28.0,30.0,24.2,19.0,91,63,31,30.02,29.89,6,3,0,0.00
2013-2-10,56.0,39.3,25.0,35.0,26.0,18.0,95,64,24,30.05,29.97,6,2,0,0.00
2013-2-11,56.0,40.5,27.0,29.0,23.7,19.0,86,55,24,30.18,30.03,5,3,0,0.00
2013-2-12,55.0,38.6,27.0,37.0,30.2,25.0,96,75,43,30.33,30.20,3,1,0,0.00
2013-2-13,59.0,41.8,30.0,40.0,34.6,29.0,97,78,42,30.28,30.19,4,2,0,0.00
2013-2-14,70.0,50.7,39.0,45.0,36.1,31.0,88,60,26,30.22,30.18,6,3,0,0.00
2013-2-15,68.0,48.5,35.0,42.0,33.1,28.0,82,60,25,30.29,30.21,4,1,0,0.00
2013-2-16,66.0,48.8,41.0,43.0,33.0,25.0,90,57,32,30.26,30.04,6,2,0,0.00
2013-2-17,63.0,47.2,36.0,40.0,34.7,31.0,92,65,34,30.03,29.94,5,2,0,0.00
2013-2-18,57.0,44.3,33.0,41.0,35.7,32.0,96,74,45,29.96,29.86,5,2,0,0.00
2013-2-19,39.0,34.9,30.0,35.0,33.0,30.0,99,93,82,29.87,29.66,4,2,0,0.43
2013-2-20,51.0,36.2,28.0,36.0,30.6,27.0,99,84,39,29.96,29.71,6,3,0,0.00
2013-2-21,54.0,37.8,29.0,33.0,29.5,21.0,98,77,29,30.09,29.96,7,2,0,0.00
2013-2-22,55.0,40.6,28.0,38.0,32.0,27.0,95,74,40,30.18,30.10,4,1,0,0.00
2013-2-23,51.0,43.6,33.0,39.0,30.1,15.0,91,62,28,30.15,30.07,8,3,0,0.00
2013-2-24,61.0,40.9,28.0,30.0,22.8,13.0,87,55,17,30.18,30.11,5,2,0,0.00
2013-2-25,58.0,42.5,30.0,34.0,29.1,26.0,91,62,33,30.23,30.14,5,2,0,0.00
2013-2-26,65.0,44.7,35.0,30.0,19.1,10.0,80,41,12,30.18,30.11,8,4,0,0.00
2013-2-27,39.0,36.7,34.0,20.0,19.1,18.0,55,49,42,30.22,30.18,8,4,0,0.00